TimeMDT,TemperatureF,Dew PointF,Humidity,Sea Level PressureIn,VisibilityMPH,Wind Direction,Wind SpeedMPH,Gust SpeedMPH,PrecipitationIn,Events,Conditions,WindDirDegrees,DateUTC
12:53 AM,69.1,62.1,78,29.80,10.0,South,6.9,-,N/A,,Clear,190,2013-08-02 06:53:00
1:53 AM,69.1,62.1,78,29.78,10.0,South,9.2,-,N/A,,Clear,170,2013-08-02 07:53:00
2:53 AM,68.0,63.0,84,29.77,10.0,South,11.5,-,N/A,,Clear,180,2013-08-02 08:53:00
3:53 AM,66.9,63.0,87,29.78,10.0,SE,9.2,-,N/A,,Clear,130,2013-08-02 09:53:00
4:53 AM,66.0,63.0,90,29.78,10.0,ESE,15.0,-,N/A,,Clear,120,2013-08-02 10:53:00
5:18 AM,64.4,62.6,94,29.93,10.0,ESE,16.1,-,N/A,,Scattered Clouds,120,2013-08-02 11:18:00
5:24 AM,64.4,62.6,94,29.93,10.0,SE,17.3,25.3,N/A,,Mostly Cloudy,130,2013-08-02 11:24:00
5:53 AM,63.0,62.1,97,29.80,6.0,SE,17.3,-,N/A,,Overcast,140,2013-08-02 11:53:00
6:53 AM,64.0,61.0,90,29.82,10.0,SE,13.8,-,N/A,,Overcast,140,2013-08-02 12:53:00
7:50 AM,64.4,62.6,94,29.97,10.0,ESE,12.7,-,N/A,,Overcast,120,2013-08-02 13:50:00
7:53 AM,64.9,62.1,90,29.87,10.0,SE,10.4,-,N/A,,Overcast,130,2013-08-02 13:53:00
8:53 AM,66.9,62.1,84,29.85,10.0,South,9.2,-,N/A,,Overcast,170,2013-08-02 14:53:00
9:53 AM,70.0,63.0,78,29.83,10.0,Variable,3.5,-,N/A,,Mostly Cloudy,0,2013-08-02 15:53:00
10:02 AM,71.6,62.6,73,29.96,10.0,SE,4.6,-,N/A,,Scattered Clouds,140,2013-08-02 16:02:00
10:53 AM,78.1,63.0,60,29.83,10.0,West,3.5,-,N/A,,Clear,270,2013-08-02 16:53:00
11:53 AM,84.0,61.0,46,29.81,10.0,Variable,4.6,-,N/A,,Clear,0,2013-08-02 17:53:00
12:53 PM,90.0,57.0,33,29.80,10.0,ENE,8.1,-,N/A,,Clear,70,2013-08-02 18:53:00
1:53 PM,93.9,57.9,30,29.79,10.0,NE,12.7,18.4,N/A,,Clear,50,2013-08-02 19:53:00
2:53 PM,93.9,57.9,30,29.80,10.0,NE,11.5,20.7,N/A,,Clear,50,2013-08-02 20:53:00
3:53 PM,91.9,60.1,34,29.81,10.0,ENE,18.4,24.2,N/A,,Clear,70,2013-08-02 21:53:00
4:53 PM,90.0,60.1,37,29.82,10.0,ENE,12.7,-,N/A,,Clear,70,2013-08-02 22:53:00
5:53 PM,89.1,60.1,38,29.83,10.0,East,16.1,-,N/A,,Clear,100,2013-08-02 23:53:00
6:53 PM,84.9,64.0,49,29.86,10.0,ESE,15.0,19.6,N/A,,Clear,120,2013-08-03 00:53:00
7:53 PM,80.1,64.9,60,29.88,10.0,ESE,8.1,-,N/A,,Clear,110,2013-08-03 01:53:00
8:53 PM,75.0,64.9,71,29.90,10.0,East,6.9,-,N/A,,Clear,100,2013-08-03 02:53:00
9:53 PM,73.0,64.9,76,29.91,10.0,East,8.1,-,N/A,,Clear,90,2013-08-03 03:53:00
10:53 PM,72.0,66.9,84,29.91,10.0,ESE,11.5,-,N/A,,Clear,110,2013-08-03 04:53:00
11:32 PM,71.6,68.0,88,30.06,10.0,ESE,11.5,-,N/A,,Mostly Cloudy,110,2013-08-03 05:32:00
11:39 PM,71.6,68.0,88,30.06,10.0,ESE,10.4,-,N/A,,Mostly Cloudy,110,2013-08-03 05:39:00
11:53 PM,71.1,68.0,90,29.92,10.0,ESE,11.5,-,N/A,,Overcast,120,2013-08-03 05:53:00